Weather History for Budapest Ferihegy, Hungary

Change the Weather History Date:

Friday, January 25, 2013

  Actual Average Record
Temperature  
Mean Temperature 30 °F -  
Max Temperature 32 °F 39 °F 50 °F (2002)
Min Temperature 28 °F 24 °F 0 °F (2006)
Degree Days  
Heating Degree Days 35    
Moisture  
Dew Point 23 °F    
Average Humidity 74    
Maximum Humidity 86    
Minimum Humidity 64    
Precipitation  
Precipitation 0.00 in - - ()
Sea Level Pressure  
Sea Level Pressure 29.83 in    
Wind  
Wind Speed 10 mph ()    
Max Wind Speed 15 mph    
Max Gust Speed -    
Visibility 5.4 miles    
Events      
Averages and records for this station are not official NWS values.
T = Trace of Precipitation, MM = Missing Value Source: Averaged Metar Reports

Daily Weather History Graph

Daily Weather History Graph

Search for Another Location

Airport:

Trip Planner

Search our weather history database for the weather conditions in past years. The results will help you decide how hot, cold, wet, or windy it might be!

Date:

Astronomy

Jan. 25, 2013 Rise Set
Actual Time 7:17 AM CET 4:33 PM CET
Civil Twilight 6:43 AM CET 5:07 PM CET
Nautical Twilight 6:06 AM CET 5:44 PM CET
Astronomical Twilight 5:30 AM CET 6:21 PM CET
Moon 3:13 PM CET (1/25) 5:46 AM CET (1/25)
Length of Visible Light 10h 23m
Length of Day
9h 16m
Waxing Gibbous, 97% of the Moon is Illuminated
Jan 25
Waxing Gibbous
Jan 27
Full
Feb 3
Last Quarter
Feb 10
New
Feb 17
First Quarter

Hourly Weather History & Observations

Time (CET) Temp. Windchill Dew Point Humidity Pressure Visibility Wind Dir Wind Speed Gust Speed Precip Events Conditions
12:00 AM 30.2 °F 21.3 °F 26.6 °F 86% 29.74 in 5.0 mi NNW 10.4 mph - N/A   Unknown
12:30 AM 30.2 °F 20.2 °F 26.6 °F 86% 29.74 in 6.2 mi NW 12.7 mph - N/A   Mostly Cloudy
1:00 AM 30.2 °F 20.2 °F 26.6 °F 86% 29.71 in 6.2 mi NNW 12.7 mph - N/A   Mostly Cloudy
1:30 AM 30.2 °F 19.8 °F 26.6 °F 86% 29.74 in 6.2 mi NNW 13.8 mph - N/A   Mostly Cloudy
2:00 AM 30.2 °F 19.3 °F 26.6 °F 86% 29.74 in - NNW 15.0 mph - N/A   Clear
2:30 AM 30.2 °F 20.2 °F 26.6 °F 86% 29.74 in 6.2 mi NNW 12.7 mph - N/A   Scattered Clouds
3:00 AM 30.2 °F 20.2 °F 24.8 °F 80% 29.74 in - NNW 12.7 mph - N/A   Clear
3:30 AM 30.2 °F 19.8 °F 24.8 °F 80% 29.74 in - NNW 13.8 mph - N/A   Clear
4:00 AM 32.0 °F 22.1 °F 24.8 °F 75% 29.74 in - NNW 13.8 mph - N/A   Clear
4:30 AM 32.0 °F 22.5 °F 24.8 °F 75% 29.74 in - NNW 12.7 mph - N/A   Clear
5:00 AM 32.0 °F 22.5 °F 23.0 °F 69% 29.74 in - NNW 12.7 mph - N/A   Clear
5:30 AM 30.2 °F 21.9 °F 23.0 °F 75% 29.74 in - NW 9.2 mph - N/A   Clear
6:00 AM 30.2 °F 20.8 °F 24.8 °F 80% 29.74 in - NW 11.5 mph - N/A   Clear
6:30 AM 30.2 °F 21.3 °F 24.8 °F 80% 29.74 in - NNW 10.4 mph - N/A   Clear
7:00 AM 30.2 °F 21.3 °F 24.8 °F 80% 29.77 in - NNW 10.4 mph - N/A   Clear
7:30 AM 30.2 °F 21.9 °F 24.8 °F 80% 29.77 in 4.3 mi NW 9.2 mph - N/A   Unknown
8:00 AM 30.2 °F 20.2 °F 24.8 °F 80% 29.80 in 4.3 mi NW 12.7 mph - N/A   Unknown
8:30 AM 30.2 °F 20.8 °F 24.8 °F 80% 29.80 in 3.7 mi NW 11.5 mph - N/A   Unknown
9:00 AM 30.2 °F 20.2 °F 24.8 °F 80% 29.80 in 3.7 mi NW 12.7 mph - N/A   Scattered Clouds
9:30 AM 30.2 °F 21.9 °F 24.8 °F 80% 29.80 in 3.7 mi NW 9.2 mph - N/A   Scattered Clouds
10:00 AM 30.2 °F 22.6 °F 23.0 °F 75% 29.83 in 3.7 mi NNW 8.1 mph - N/A   Scattered Clouds
10:30 AM 30.2 °F 21.3 °F 23.0 °F 75% 29.83 in 4.3 mi NNW 10.4 mph - N/A   Mostly Cloudy
11:00 AM 32.0 °F 22.5 °F 23.0 °F 69% 29.83 in 5.0 mi NNW 12.7 mph - N/A   Unknown
11:30 AM 32.0 °F 22.1 °F 23.0 °F 69% 29.83 in 5.0 mi NNW 13.8 mph - N/A   Unknown
12:00 PM 32.0 °F 23.6 °F 23.0 °F 69% 29.83 in 5.0 mi NNW 10.4 mph - N/A   Unknown
12:30 PM 32.0 °F 24.2 °F 24.8 °F 75% 29.83 in 5.0 mi NNW 9.2 mph - N/A   Unknown
1:00 PM 32.0 °F 24.8 °F 24.8 °F 75% 29.83 in - NNW 8.1 mph - N/A   Clear
1:30 PM 32.0 °F 24.2 °F 23.0 °F 69% 29.83 in - NNW 9.2 mph - N/A   Clear
2:00 PM 32.0 °F 24.2 °F 24.8 °F 75% 29.83 in - NW 9.2 mph - N/A   Clear
2:30 PM 32.0 °F 23.6 °F 24.8 °F 75% 29.86 in 5.0 mi NW 10.4 mph - N/A   Unknown
3:00 PM 32.0 °F 24.2 °F 23.0 °F 69% 29.86 in 5.0 mi NNW 9.2 mph - N/A   Unknown
3:30 PM 32.0 °F 23.6 °F 21.2 °F 64% 29.86 in 5.0 mi NNW 10.4 mph - N/A   Unknown
4:00 PM 32.0 °F 24.2 °F 21.2 °F 64% 29.86 in 5.0 mi NNW 9.2 mph - N/A   Unknown
4:30 PM 30.2 °F 21.3 °F 21.2 °F 69% 29.89 in 5.0 mi North 10.4 mph - N/A   Unknown
5:00 PM 30.2 °F 21.3 °F 19.4 °F 64% 29.89 in 5.0 mi North 10.4 mph - N/A   Unknown
5:30 PM 28.4 °F 18.0 °F 17.6 °F 64% 29.92 in 6.2 mi North 12.7 mph - N/A   Mostly Cloudy
6:00 PM 28.4 °F 18.0 °F 17.6 °F 64% 29.92 in 6.2 mi North 12.7 mph - N/A   Mostly Cloudy
6:30 PM 28.4 °F 19.1 °F 19.4 °F 69% 29.92 in 6.2 mi NNW 10.4 mph - N/A   Mostly Cloudy
7:00 PM 28.4 °F 19.7 °F 19.4 °F 69% 29.92 in 6.2 mi NNW 9.2 mph - N/A   Mostly Cloudy
7:30 PM 28.4 °F 19.7 °F 19.4 °F 69% 29.92 in 6.2 mi North 9.2 mph - N/A   Mostly Cloudy
8:00 PM 28.4 °F 20.4 °F 19.4 °F 69% 29.95 in 6.2 mi North 8.1 mph - N/A   Overcast
8:30 PM 28.4 °F 19.7 °F 19.4 °F 69% 29.95 in 6.2 mi NNW 9.2 mph - N/A   Mostly Cloudy
9:00 PM 28.4 °F 19.7 °F 19.4 °F 69% 29.95 in 6.2 mi NNW 9.2 mph - N/A   Mostly Cloudy
9:30 PM 28.4 °F 19.7 °F 19.4 °F 69% 29.95 in 6.2 mi NNW 9.2 mph - N/A   Mostly Cloudy
10:00 PM 28.4 °F 20.4 °F 19.4 °F 69% 29.95 in 6.2 mi NNW 8.1 mph - N/A   Mostly Cloudy
10:30 PM 28.4 °F 20.4 °F 19.4 °F 69% 29.95 in 6.2 mi NNW 8.1 mph - N/A   Mostly Cloudy
11:00 PM 28.4 °F 18.5 °F 19.4 °F 69% 29.95 in 6.2 mi NNW 11.5 mph - N/A   Mostly Cloudy
11:30 PM 28.4 °F 20.4 °F 19.4 °F 69% 29.95 in 6.2 mi NNW 8.1 mph - N/A   Mostly Cloudy